EHI
1 0 0 1 2 2 1 3 5 5 4 3 3 3 4 4 5 5 5 5 5 4 4 3 3 4 4 4 4 4 4 3 2 1 0 0 0 0 0 0 0 1 2
1 1 1 2 2 2 3 3 4 4 3 3 3 3 3 4 4 5 6 6 6 5 4 3 3 4 4 4 4 5 5 5 4 3 1 1 0 0 0 0 0 1 2
1 1 3 5 5 6 6 5 4 3 2 2 3 4 4 4 4 4 5 6 6 5 4 3 3 3 4 4 4 5 6 6 5 4 3 2 1 1 0 0 0 0 1
1 2 5 8 9 9 8 6 4 2 1 2 4 5 5 4 3 3 3 3 4 4 4 4 4 3 3 3 4 6 8 8 6 4 3 3 3 2 1 0 0 0 0
1 3 7 9 10 10 8 6 4 2 1 3 4 4 4 3 2 1 1 1 1 3 3 4 5 5 4 4 6 8 8 7 6 5 4 3 3 2 1 0 0 0 0
2 4 7 9 10 10 9 6 4 2 2 4 5 4 3 3 1 1 1 1 1 1 1 3 6 6 5 5 7 7 6 6 6 5 4 3 3 3 1 0 0 0 0
3 3 5 6 8 9 9 7 4 2 2 4 6 5 4 3 3 2 2 2 2 1 2 4 5 6 5 5 5 5 4 4 4 4 3 3 3 3 2 1 0 0 0
2 3 4 5 6 7 7 6 4 3 3 5 7 6 5 4 3 3 3 3 3 3 4 4 4 4 4 4 3 3 3 3 2 2 2 2 2 3 3 2 1 0 0
2 3 5 6 6 7 6 5 3 3 5 7 7 7 6 5 4 4 3 3 4 4 4 4 3 3 3 3 3 3 3 3 2 1 1 1 1 1 2 2 1 0 0
2 2 3 4 6 7 7 6 4 4 6 6 6 5 6 6 6 5 4 3 3 3 3 3 3 3 3 3 3 3 4 4 4 3 2 1 0 0 1 1 0 0 1
1 1 1 2 4 7 8 8 7 7 7 5 4 4 5 6 6 5 4 3 3 3 3 3 3 3 3 3 3 3 3 4 5 5 4 2 1 0 0 0 0 0 1
0 0 1 2 3 5 6 7 8 8 7 5 4 4 4 5 4 4 3 3 3 3 3 3 3 3 3 3 3 3 3 3 4 4 4 3 2 1 1 1 1 0 1
0 0 1 2 3 3 4 5 6 7 7 6 6 5 4 4 4 4 4 3 3 3 3 3 3 3 3 3 3 3 3 3 3 3 3 3 3 2 2 2 2 1 1
0 0 0 1 3 4 4 4 6 7 8 8 6 5 4 3 3 5 5 4 3 3 3 3 3 3 3 3 3 3 3 3 3 3 3 3 3 3 3 3 3 3 2
0 0 0 1 4 6 5 5 6 7 8 7 5 3 3 3 3 5 6 5 4 3 3 3 3 3 3 3 3 3 3 3 3 3 3 3 3 3 3 3 3 3 3
1 1 1 1 3 5 6 6 6 6 6 6 5 3 2 3 3 4 6 7 6 5 4 4 4 4 3 3 3 3 3 3 3 3 3 3 3 3 3 3 3 3 3
0 1 1 1 1 3 6 7 6 5 5 6 6 5 4 3 3 4 7 9 8 6 5 5 5 5 4 3 1 1 2 3 3 4 4 4 4 4 4 4 3 3 3
0 1 2 2 1 2 4 6 6 5 4 5 6 6 5 4 5 6 8 8 8 7 6 5 5 5 5 3 1 0 2 3 4 5 6 6 6 6 6 5 4 4 4
2 3 3 3 3 3 5 6 5 4 4 4 5 6 6 6 7 8 8 7 6 6 7 7 5 5 5 3 1 0 2 3 4 6 6 6 6 6 5 5 6 6 6
4 4 3 3 4 5 6 6 6 4 4 4 5 6 6 6 6 7 6 5 5 6 9 8 7 6 5 4 1 0 1 2 3 5 6 6 5 4 2 3 5 6 6
5 4 3 3 4 4 5 7 7 5 4 4 5 6 6 6 5 4 4 3 4 7 8 8 7 6 5 3 1 0 0 1 2 4 5 5 3 1 1 1 3 5 5
5 4 4 4 4 4 5 7 7 5 4 5 6 6 6 6 5 4 4 4 5 7 8 7 7 5 3 2 0 0 0 0 0 2 3 2 1 0 0 1 2 2 2
6 6 5 5 5 6 6 7 7 7 6 6 6 6 6 6 6 5 5 5 6 6 7 7 5 5 4 3 2 1 0 0 0 0 1 1 0 0 0 0 0 0 1
6 6 6 6 6 6 6 7 8 9 9 8 7 7 6 5 6 6 6 6 5 5 6 6 5 4 4 4 4 3 2 1 0 0 0 0 0 1 1 1 1 1 1
5 5 6 7 7 7 7 8 9 10 10 9 9 8 6 6 6 6 5 4 4 4 5 5 5 4 2 2 2 3 3 2 1 0 1 1 1 1 2 2 2 2 2
5 5 7 9 8 7 8 9 9 10 10 10 9 8 7 6 6 6 5 4 3 3 4 4 4 3 1 0 0 1 2 2 1 1 2 2 1 1 3 3 3 3 3
Wind_Speed
5 4 4 4 4 3 3 3 2 2 2 1 1 1 1 1 1 1 1 2 2 3 3 2 2 2 2 2 2 1 1 1 1 1 1 1 1 2 2 2 2 3 3
4 4 4 4 5 4 4 3 3 3 3 2 2 1 1 1 1 1 0 1 2 2 3 3 2 2 2 2 2 2 1 1 1 1 1 1 2 1 1 1 2 2 2
7 6 6 5 5 5 6 5 4 4 3 2 1 1 1 1 1 1 1 1 1 2 2 3 3 2 2 2 2 3 3 2 1 1 2 2 2 2 2 1 1 1 1
7 6 6 6 6 6 5 4 3 3 3 3 3 3 2 2 2 1 1 1 0 1 2 2 3 2 2 2 3 3 2 3 2 1 1 2 2 1 2 2 1 1 2
7 8 8 8 6 5 4 4 3 3 3 3 4 3 2 2 1 0 0 1 1 1 1 2 2 2 2 3 2 2 2 2 2 2 1 1 1 1 2 2 2 1 2
6 6 6 5 5 5 4 4 3 3 3 3 3 4 4 2 1 1 1 0 0 1 1 1 1 2 2 2 2 2 2 2 2 2 2 2 2 2 2 3 2 2 2
4 4 5 6 6 6 6 5 5 4 3 3 3 4 4 3 3 3 2 1 0 0 1 1 1 1 1 2 2 2 2 2 2 3 2 3 3 2 3 2 2 2 2
4 5 6 7 6 6 6 6 6 4 4 3 3 3 3 3 2 2 2 2 1 1 1 1 1 1 1 1 1 1 2 2 3 3 3 2 2 2 3 3 2 1 1
4 4 4 4 5 6 6 7 7 5 4 4 4 3 3 3 2 2 2 1 1 1 0 1 1 1 1 1 1 1 2 1 2 2 3 2 2 2 2 2 2 3 2
2 2 3 3 3 4 4 4 4 4 4 4 4 3 2 2 2 2 2 1 1 0 0 0 1 1 1 1 1 1 1 1 1 1 1 2 1 1 1 1 2 3 3
4 3 3 3 3 3 4 4 4 4 3 3 3 2 2 2 2 1 1 1 1 1 1 1 1 1 1 1 1 1 1 1 2 2 2 2 2 1 1 1 1 2 3
3 3 3 3 4 4 4 4 4 4 3 3 3 2 2 1 1 1 2 2 2 2 2 1 1 1 1 1 2 2 2 2 3 3 2 3 2 2 1 1 2 2 3
2 2 2 3 4 4 4 4 3 3 3 3 3 2 2 2 2 2 2 2 2 2 1 1 1 2 1 2 2 2 2 2 3 3 3 3 2 3 2 2 2 2 2
3 3 3 3 3 4 4 4 4 3 3 3 3 2 2 2 3 2 2 2 2 2 2 2 2 2 2 2 1 1 2 2 3 3 3 3 4 4 3 3 3 2 2
3 4 4 3 3 3 3 4 4 3 4 4 3 3 2 1 2 2 2 2 2 3 2 2 2 2 2 2 1 2 2 2 3 3 3 4 4 5 4 3 3 3 2
5 4 4 4 4 4 4 4 3 3 4 4 3 2 1 1 1 2 2 2 2 2 2 2 2 2 2 2 3 3 2 2 3 3 3 4 4 4 5 5 5 5 4
4 4 4 4 4 4 5 5 4 3 3 3 2 2 1 1 1 1 1 2 2 2 2 2 2 3 3 3 3 4 3 2 3 3 3 3 3 3 3 4 4 5 6
3 3 3 3 3 3 3 3 3 3 3 2 2 1 1 2 1 0 1 2 2 2 2 2 3 3 4 3 3 4 3 3 3 4 4 4 4 3 3 3 3 4 4
3 3 2 3 3 3 4 4 3 3 2 2 2 2 2 2 1 1 2 2 2 2 2 2 3 3 4 4 3 2 2 3 4 4 4 4 4 5 4 3 3 4 4
1 2 3 4 4 3 4 5 3 2 2 2 2 2 2 2 2 2 2 1 2 2 2 2 2 3 3 4 4 3 2 3 4 3 4 6 6 5 4 4 4 5 5
2 3 3 3 2 3 4 4 3 2 3 2 1 1 1 2 1 1 1 1 1 1 1 2 2 2 3 4 4 3 2 3 4 3 3 4 5 6 6 5 5 7 5
3 3 3 2 1 3 4 3 2 3 2 1 1 1 1 1 1 1 1 1 0 0 1 2 2 2 2 3 4 4 4 4 4 4 4 3 5 5 5 4 5 7 4
1 2 3 2 1 2 4 4 3 2 2 2 1 1 1 1 1 1 1 1 0 1 1 1 2 3 2 3 4 5 5 5 3 3 5 5 5 5 4 6 6 5 3
1 1 2 2 1 2 3 3 3 2 3 2 1 1 1 0 0 0 1 1 1 1 1 2 2 3 3 3 2 3 3 4 3 3 3 4 4 3 4 4 3 3 3
1 1 2 3 3 2 2 2 2 3 3 2 2 1 1 1 1 1 2 2 3 3 3 3 2 2 3 4 4 3 3 3 3 2 2 2 2 2 2 2 2 2 3
1 1 2 2 2 2 2 2 3 3 3 2 2 2 2 1 1 1 2 2 3 3 4 4 4 3 5 5 4 4 4 4 2 0 1 2 2 3 3 3 3 3 3
Wind_Direction
220 202 200 197 187 184 186 192 185 177 148 145 172 184 225 236 238 234 227 215 200 186 181 190 188 181 183 192 176 163 166 211 161 126 337 306 269 246 243 237 237 241 236
213 205 197 196 193 192 196 192 191 180 177 187 190 186 186 211 222 279 264 225 206 190 186 182 186 183 176 176 170 158 152 178 154 148 110 340 337 328 289 241 230 242 238
216 210 206 204 201 203 204 202 194 185 183 179 148 104 65 33 27 339 309 275 223 201 190 188 186 180 176 187 193 177 170 185 190 173 162 170 242 310 320 296 262 252 235
218 210 208 208 210 211 206 204 191 188 180 161 160 161 169 201 227 231 260 320 294 224 198 192 186 186 186 192 205 184 179 176 196 193 189 198 183 207 302 320 306 272 247
215 208 207 207 208 202 198 195 177 182 178 166 174 179 194 214 223 119 339 328 330 307 244 180 173 183 193 202 201 183 179 184 196 195 180 176 204 217 211 273 298 294 257
212 209 204 195 198 191 187 180 174 190 185 174 174 183 190 187 158 208 232 262 322 338 322 203 184 191 196 203 204 197 191 205 207 205 197 195 196 202 201 226 251 260 261
205 203 196 195 197 189 187 179 177 191 190 175 176 188 190 183 196 211 214 208 231 278 285 247 200 212 220 209 191 184 209 211 213 214 219 218 222 202 187 203 231 243 253
201 201 203 201 202 195 188 180 181 190 183 179 194 198 196 193 208 211 202 200 214 238 245 200 215 240 230 211 183 188 215 213 221 228 224 226 234 216 202 194 183 210 235
218 210 199 194 197 193 190 186 182 187 187 188 191 196 201 201 209 206 199 204 205 227 215 169 218 245 224 203 171 211 230 217 227 232 231 236 242 229 224 205 189 183 208
229 218 193 191 184 176 174 171 177 183 184 182 191 192 201 202 199 178 178 189 201 246 228 176 212 237 238 214 187 222 234 214 247 239 227 241 253 242 215 201 197 194 195
212 206 194 182 158 142 146 162 172 176 181 182 184 194 211 205 181 181 200 202 198 208 215 219 221 236 240 235 214 242 226 221 246 247 226 241 236 229 227 196 192 199 192
205 192 182 159 145 150 155 165 175 180 182 166 164 187 196 175 173 205 223 207 208 215 213 213 220 242 254 240 225 238 240 232 241 249 241 247 235 229 225 206 216 212 204
186 169 169 168 172 173 170 172 173 173 165 152 149 165 190 189 212 224 227 215 209 216 220 214 231 245 245 240 239 234 242 243 243 242 237 240 227 233 229 222 224 225 216
184 180 187 193 193 183 174 172 177 169 159 152 154 168 204 216 223 220 219 218 209 215 230 234 240 244 240 237 236 240 248 254 260 257 244 237 223 223 220 221 224 220 213
193 195 193 196 199 186 177 173 172 164 157 153 170 203 216 223 225 218 216 214 213 223 223 226 242 245 233 230 217 223 229 244 260 268 261 249 238 227 219 219 216 208 208
207 206 197 192 191 187 184 175 174 173 161 166 184 193 205 220 235 241 228 219 225 229 221 224 230 240 249 252 225 216 223 234 244 262 273 265 249 249 240 233 217 205 204
215 213 202 196 193 188 176 175 183 170 163 170 173 170 188 220 247 258 255 240 238 228 228 236 239 251 262 263 250 237 228 237 244 249 260 267 268 252 245 243 235 234 230
205 207 197 185 183 169 155 155 150 153 159 160 165 173 197 226 241 238 253 254 241 229 234 241 243 251 266 267 252 244 233 243 253 252 250 256 269 260 238 237 242 246 247
195 193 176 157 141 140 143 134 134 142 144 162 189 204 200 206 203 238 261 263 248 244 242 245 241 250 269 265 253 243 248 259 264 260 256 255 261 264 246 231 242 256 261
125 134 123 113 119 133 133 129 136 136 174 208 217 213 196 191 200 229 251 269 253 253 253 261 255 255 270 277 262 241 249 265 271 270 262 254 256 259 240 226 235 252 259
112 105 110 120 147 148 132 135 145 183 217 219 210 195 204 198 195 211 243 272 271 279 288 285 286 270 274 282 274 254 246 255 262 266 268 264 260 257 252 241 238 245 254
95 101 111 122 137 134 133 143 184 214 201 174 174 197 221 230 202 195 272 289 240 246 308 306 308 299 292 288 288 278 267 270 260 263 269 271 268 261 259 246 250 252 250
131 122 127 123 112 158 158 173 215 202 166 149 168 205 218 235 217 193 228 297 248 230 269 283 290 298 298 291 286 280 280 279 270 269 276 281 280 273 261 253 254 245 235
180 155 133 148 206 217 191 200 210 184 163 169 182 193 184 252 346 276 220 218 239 246 251 262 277 292 303 304 309 303 295 290 283 290 296 293 285 276 269 272 262 244 238
203 169 181 200 220 220 210 207 195 167 170 189 205 214 220 213 223 246 234 229 229 223 224 242 248 268 285 285 283 281 292 287 274 283 300 309 308 301 295 284 277 263 252
198 193 204 218 236 232 240 228 190 175 177 193 211 215 217 223 226 246 286 270 252 246 230 231 232 250 262 281 281 276 272 283 278 225 283 284 278 277 278 275 276 269 262